Weather History for Lee's Summit, MO

Change the Weather History Date:

Tuesday, November 13, 2012

  Actual Average (KMKC) Record (KMKC)
Temperature  
Mean Temperature 42 °F -  
Max Temperature 52 °F 53 °F 80 °F (1999)
Min Temperature 32 °F 37 °F 17 °F (2014)
Degree Days  
Heating Degree Days 23    
Moisture  
Dew Point 27 °F    
Average Humidity 53    
Maximum Humidity 64    
Minimum Humidity 43    
Precipitation  
Precipitation 0.00 in - - ()
Sea Level Pressure  
Sea Level Pressure 30.42 in    
Wind  
Wind Speed 5 mph (South)    
Max Wind Speed 9 mph    
Max Gust Speed -    
Visibility 10 miles    
Events      
Averages and records for this station are not official NWS values.
T = Trace of Precipitation, MM = Missing Value Source: NWS Daily Summary

Daily Weather History Graph

Daily Weather History Graph

Search for Another Location

Airport:

Trip Planner

Search our weather history database for the weather conditions in past years. The results will help you decide how hot, cold, wet, or windy it might be!

Date:

Astronomy

Nov. 13, 2012 Rise Set
Actual Time 6:58 AM CST 5:04 PM CST
Civil Twilight 6:30 AM CST 5:33 PM CST
Nautical Twilight 5:58 AM CST 6:05 PM CST
Astronomical Twilight 5:26 AM CST 6:36 PM CST
Moon 6:37 AM CST (11/13) 4:58 PM CST (11/13)
Length of Visible Light 11h 02m
Length of Day
10h 06m
Waning Crescent, 0% of the Moon is Illuminated
Nov 13
Waning Crescent
Nov 13
New
Nov 20
First Quarter
Nov 28
Full
Dec 6
Last Quarter

Hourly Weather History & Observations

Time (CST) Temp. Windchill Dew Point Humidity Pressure Visibility Wind Dir Wind Speed Gust Speed Precip Events Conditions
12:53 AM 35.1 °F 32.2 °F 18.0 °F 50% 30.45 in 10.0 mi SSW 3.5 mph - N/A   Clear
1:53 AM 33.1 °F 28.7 °F 18.0 °F 54% 30.45 in 10.0 mi SSW 4.6 mph - N/A   Clear
2:53 AM 36.0 °F 33.3 °F 18.0 °F 48% 30.45 in 10.0 mi South 3.5 mph - N/A   Clear
4:53 AM 34.0 °F 31.0 °F 19.0 °F 54% 30.45 in 10.0 mi South 3.5 mph - N/A   Clear
5:53 AM 32.0 °F 26.4 °F 19.9 °F 61% 30.46 in 10.0 mi South 5.8 mph - N/A   Clear
6:53 AM 32.0 °F 26.4 °F 21.0 °F 64% 30.46 in 10.0 mi South 5.8 mph - N/A   Clear
7:53 AM 34.0 °F 28.8 °F 21.9 °F 61% 30.46 in 10.0 mi South 5.8 mph - N/A   Clear
8:53 AM 39.0 °F 35.7 °F 25.0 °F 57% 30.46 in 10.0 mi South 4.6 mph - N/A   Clear
9:53 AM 41.0 °F 35.8 °F 27.0 °F 57% 30.47 in 10.0 mi South 8.1 mph - N/A   Clear
10:53 AM 46.0 °F 44.8 °F 28.9 °F 51% 30.46 in 10.0 mi South 3.5 mph - N/A   Clear
11:53 AM 50.0 °F - 30.0 °F 46% 30.43 in 10.0 mi South 4.6 mph - N/A   Clear
12:53 PM 52.0 °F - 30.0 °F 43% 30.40 in 10.0 mi South 8.1 mph - N/A   Clear
1:53 PM 52.0 °F - 30.9 °F 45% 30.38 in 10.0 mi South 8.1 mph - N/A   Clear
2:53 PM 52.0 °F - 30.9 °F 45% 30.37 in 10.0 mi South 9.2 mph - N/A   Clear
3:53 PM 51.1 °F - 30.9 °F 46% 30.36 in 10.0 mi South 4.6 mph - N/A   Clear
4:53 PM 50.0 °F - 30.9 °F 48% 30.35 in 10.0 mi SSE 3.5 mph - N/A   Clear
5:53 PM 46.9 °F - 32.0 °F 56% 30.36 in 10.0 mi SE 4.6 mph - N/A   Clear
6:53 PM 46.0 °F 42.5 °F 32.0 °F 58% 30.38 in 10.0 mi SSE 6.9 mph - N/A   Clear
7:53 PM 46.9 °F - 30.9 °F 54% 30.39 in 10.0 mi South 8.1 mph - N/A   Clear
8:53 PM 46.9 °F - 30.0 °F 52% 30.40 in 10.0 mi South 9.2 mph - N/A   Clear
9:53 PM 46.0 °F 42.5 °F 30.0 °F 54% 30.40 in 10.0 mi South 6.9 mph - N/A   Clear
10:53 PM 45.0 °F 41.8 °F 28.9 °F 53% 30.41 in 10.0 mi SSW 5.8 mph - N/A   Clear
11:53 PM 44.1 °F 40.1 °F 28.9 °F 55% 30.40 in 10.0 mi SSW 6.9 mph - N/A   Clear